Weather History for Fremont, MI

Change the Weather History Date:

Tuesday, August 6, 2013

  Actual Average (KMKG) Record (KMKG)
Temperature  
Mean Temperature 68 °F 71 °F  
Max Temperature 74 °F 80 °F 97 °F (1947)
Min Temperature 63 °F 62 °F 44 °F (1948)
Degree Days  
Heating Degree Days 0 0  
Month to date heating degree days 0  
Since 1 June heating degree days 77  
Since 1 July heating degree days 11  
Cooling Degree Days 4 6  
Month to date cooling degree days 36  
Year to date cooling degree days 372  
Since 1 June cooling degree days 343  
Growing Degree Days 18 (Base 50)    
Moisture  
Dew Point 64 °F    
Average Humidity 90    
Maximum Humidity 99    
Minimum Humidity 73    
Precipitation  
Precipitation 0.00 in 0.10 in 1.28 in (1985)
Month to date precipitation 0.62  
Year to date precipitation 17.81  
Snow  
Snow 0.00 in 0.00 in - ()
Month to date snowfall 0.0  
Since 1 June snowfall 0.0  
Since 1 July snowfall 0.0  
Snow Depth -    
Sea Level Pressure  
Sea Level Pressure 29.88 in    
Wind  
Wind Speed 3 mph (SSE)    
Max Wind Speed 12 mph    
Max Gust Speed -    
Visibility 8 miles    
Events Rain    
T = Trace of Precipitation, MM = Missing Value Source: NWS Daily Summary

Daily Weather History Graph

Daily Weather History Graph

Search for Another Location

Airport:

Trip Planner

Search our weather history database for the weather conditions in past years. The results will help you decide how hot, cold, wet, or windy it might be!

Date:

Astronomy

Aug. 06, 2013 Rise Set
Actual Time 6:39 AM EDT 8:59 PM EDT
Civil Twilight 6:07 AM EDT 9:31 PM EDT
Nautical Twilight 5:27 AM EDT 10:10 PM EDT
Astronomical Twilight 4:43 AM EDT 10:54 PM EDT
Moon 6:31 AM EDT (8/6) 8:31 PM EDT (8/6)
Length of Visible Light 15h 24m
Length of Day
14h 20m
Waning Crescent, 0% of the Moon is Illuminated
Aug 6
Waning Crescent
Aug 6
New
Aug 14
First Quarter
Aug 20
Full
Aug 28
Last Quarter

Hourly Weather History & Observations

Time (EDT) Temp. Dew Point Humidity Pressure Visibility Wind Dir Wind Speed Gust Speed Precip Events Conditions
12:14 AM 64.4 °F 58.3 °F 80% 29.93 in 10.0 mi Calm Calm - N/A   Overcast
12:34 AM 64.0 °F 58.8 °F 83% 29.92 in 10.0 mi Calm Calm - N/A   Overcast
12:54 AM 63.7 °F 59.2 °F 85% 29.92 in 10.0 mi Calm Calm - N/A   Overcast
1:14 AM 63.7 °F 59.2 °F 85% 29.92 in 10.0 mi SE 3.5 mph - N/A   Overcast
1:35 AM 64.0 °F 59.9 °F 86% 29.92 in 10.0 mi ESE 3.5 mph - N/A   Overcast
1:54 AM 64.0 °F 60.3 °F 87% 29.91 in 10.0 mi Calm Calm - N/A   Overcast
2:15 AM 63.9 °F 60.4 °F 89% 29.90 in 10.0 mi Calm Calm - N/A   Overcast
2:35 AM 63.9 °F 60.6 °F 89% 29.90 in 10.0 mi Calm Calm - N/A   Overcast
2:54 AM 63.9 °F 60.6 °F 89% 29.90 in 10.0 mi Calm Calm - N/A   Overcast
3:15 AM 63.9 °F 60.6 °F 89% 29.90 in 10.0 mi Calm Calm - N/A   Overcast
3:34 AM 63.9 °F 60.8 °F 90% 29.90 in 10.0 mi Calm Calm - N/A   Overcast
3:54 AM 63.9 °F 61.5 °F 92% 29.90 in 10.0 mi SE 3.5 mph - N/A Rain Rain
4:14 AM 63.7 °F 61.9 °F 94% 29.89 in 7.0 mi SE 3.5 mph - N/A Rain Rain
4:35 AM 63.5 °F 62.2 °F 96% 29.89 in 10.0 mi SE 3.5 mph - N/A   Overcast
4:54 AM 63.3 °F 62.4 °F 97% 29.88 in 10.0 mi SE 4.6 mph - N/A   Overcast
5:14 AM 63.1 °F 62.6 °F 98% 29.88 in 10.0 mi SE 3.5 mph - N/A   Overcast
5:34 AM 63.1 °F 62.6 °F 98% 29.87 in 10.0 mi SSE 3.5 mph - N/A   Overcast
5:55 AM 63.1 °F 62.6 °F 98% 29.87 in 10.0 mi SE 3.5 mph - N/A   Overcast
6:14 AM 63.1 °F 62.6 °F 98% 29.87 in 10.0 mi SE 3.5 mph - N/A   Overcast
6:34 AM 63.5 °F 62.6 °F 97% 29.87 in 10.0 mi Calm Calm - N/A   Overcast
6:55 AM 63.5 °F 62.6 °F 97% 29.88 in 10.0 mi Calm Calm - N/A   Overcast
7:14 AM 63.5 °F 62.6 °F 97% 29.89 in 10.0 mi Calm Calm - N/A   Overcast
7:35 AM 63.5 °F 62.6 °F 97% 29.88 in 7.0 mi SSE 5.8 mph - N/A   Overcast
7:54 AM 63.1 °F 62.8 °F 99% 29.88 in 5.0 mi SE 4.6 mph - N/A   Overcast
8:14 AM 63.7 °F 63.0 °F 97% 29.88 in 7.0 mi SSE 5.8 mph - N/A   Overcast
8:35 AM 63.9 °F 62.8 °F 96% 29.88 in 10.0 mi SE 4.6 mph - N/A   Overcast
8:54 AM 64.0 °F 62.8 °F 96% 29.88 in 10.0 mi SE 5.8 mph - N/A   Overcast
9:15 AM 64.4 °F 63.3 °F 96% 29.89 in 7.0 mi SSE 4.6 mph - N/A   Overcast
9:34 AM 64.9 °F 63.5 °F 95% 29.90 in 10.0 mi SSE 3.5 mph - N/A   Overcast
9:54 AM 65.8 °F 63.7 °F 93% 29.89 in 10.0 mi SSE 5.8 mph - N/A   Overcast
10:14 AM 66.4 °F 63.9 °F 92% 29.89 in 10.0 mi SSE 3.5 mph - N/A   Overcast
10:35 AM 66.9 °F 64.0 °F 90% 29.90 in 10.0 mi South 8.1 mph - N/A   Overcast
10:54 AM 67.5 °F 64.4 °F 90% 29.90 in 10.0 mi South 5.8 mph - N/A   Overcast
11:15 AM 68.2 °F 64.8 °F 89% 29.88 in 10.0 mi SSE 4.6 mph - N/A   Overcast
11:34 AM 68.2 °F 64.8 °F 89% 29.89 in 10.0 mi South 8.1 mph - N/A   Overcast
11:55 AM 68.4 °F 64.9 °F 89% 29.90 in 10.0 mi South 10.4 mph - N/A   Overcast
12:14 PM 69.1 °F 65.3 °F 88% 29.91 in 10.0 mi South 8.1 mph - N/A   Overcast
12:35 PM 68.9 °F 65.7 °F 89% 29.91 in 10.0 mi South 5.8 mph - N/A   Overcast
12:54 PM 70.0 °F 66.2 °F 88% 29.90 in 10.0 mi SSW 9.2 mph - N/A   Overcast
1:15 PM 70.3 °F 65.5 °F 85% 29.89 in 10.0 mi SSW 9.2 mph - N/A   Overcast
1:34 PM 70.3 °F 65.5 °F 85% 29.89 in 10.0 mi South 6.9 mph - N/A   Overcast
1:54 PM 70.9 °F 65.8 °F 84% 29.89 in 10.0 mi South 4.6 mph - N/A   Overcast
2:14 PM 70.7 °F 65.8 °F 85% 29.88 in 7.0 mi SSW 6.9 mph - N/A   Overcast
2:34 PM 70.7 °F 66.0 °F 85% 29.88 in 7.0 mi South 9.2 mph - N/A   Overcast
2:54 PM 71.8 °F 66.4 °F 83% 29.88 in 7.0 mi South 10.4 mph - N/A   Overcast
3:15 PM 70.9 °F 66.4 °F 86% 29.88 in 7.0 mi South 11.5 mph - N/A   Overcast
3:34 PM 71.1 °F 66.7 °F 86% 29.88 in 7.0 mi SSW 10.4 mph - N/A   Overcast
3:55 PM 71.1 °F 66.9 °F 87% 29.88 in 5.0 mi South 10.4 mph - N/A   Overcast
4:14 PM 70.9 °F 66.7 °F 87% 29.87 in 7.0 mi South 10.4 mph - N/A   Overcast
4:34 PM 70.9 °F 67.1 °F 88% 29.87 in 7.0 mi South 9.2 mph - N/A   Overcast
4:54 PM 71.8 °F 67.1 °F 85% 29.87 in 7.0 mi SSE 4.6 mph - N/A   Overcast
5:14 PM 71.8 °F 67.3 °F 86% 29.87 in 7.0 mi SSE 3.5 mph - N/A   Overcast
5:34 PM 73.2 °F 67.1 °F 81% 29.86 in 7.0 mi South 5.8 mph - N/A   Overcast
5:54 PM 73.8 °F 66.4 °F 78% 29.85 in 10.0 mi SE 5.8 mph - N/A   Mostly Cloudy
6:14 PM 73.4 °F 66.0 °F 78% 29.85 in 10.0 mi South 6.9 mph - N/A   Mostly Cloudy
6:35 PM 74.5 °F 66.2 °F 75% 29.86 in 10.0 mi SSW 8.1 mph - N/A   Mostly Cloudy
6:54 PM 74.7 °F 65.8 °F 74% 29.86 in 10.0 mi South 8.1 mph - N/A   Mostly Cloudy
7:14 PM 74.3 °F 65.3 °F 73% 29.86 in 10.0 mi South 5.8 mph - N/A   Scattered Clouds
7:35 PM 72.9 °F 65.5 °F 78% 29.87 in 10.0 mi South 6.9 mph - N/A   Scattered Clouds
7:54 PM 72.7 °F 66.2 °F 80% 29.86 in 10.0 mi SSW 6.9 mph - N/A   Scattered Clouds
8:14 PM 72.0 °F 66.6 °F 83% 29.86 in 7.0 mi South 5.8 mph - N/A   Scattered Clouds
8:35 PM 70.7 °F 66.6 °F 87% 29.86 in 7.0 mi South 4.6 mph - N/A   Scattered Clouds
8:54 PM 69.8 °F 67.1 °F 91% 29.86 in 7.0 mi Calm Calm - N/A   Clear
9:15 PM 68.7 °F 66.7 °F 93% 29.86 in 7.0 mi Calm Calm - N/A   Clear
9:34 PM 68.4 °F 66.9 °F 95% 29.86 in 7.0 mi Calm Calm - N/A   Clear
9:54 PM 66.6 °F 66.0 °F 98% 29.87 in 5.0 mi Calm Calm - N/A   Clear
10:14 PM 65.8 °F 65.5 °F 99% 29.86 in 4.0 mi ESE 3.5 mph - N/A   Clear
10:34 PM 66.6 °F 66.4 °F 99% 29.86 in 5.0 mi ESE 3.5 mph - N/A   Clear
10:55 PM 66.9 °F 66.2 °F 98% 29.85 in 5.0 mi ESE 3.5 mph - N/A   Scattered Clouds
11:14 PM 66.7 °F 66.2 °F 98% 29.85 in 4.0 mi Calm Calm - N/A   Clear
11:35 PM 66.0 °F 65.5 °F 98% 29.85 in 4.0 mi Calm Calm - N/A   Clear
11:54 PM 66.2 °F 65.8 °F 99% 29.84 in 4.0 mi Calm Calm - N/A   Clear